Luray Caverns AP, Luray, VA, VA

10:16 AM EDT on June 18, 2018 (GMT -0400)
Luray Caverns AP, Luray, VA

Weather History for KLUA - June, 2018

Change the Weather History Date:

Monday, June 11, 2018

  Actual Average (KSHD) Record (KSHD)
Temperature  
Mean Temperature 62 °F -  
Max Temperature 66 °F 80 °F 95 °F (2002)
Min Temperature 59 °F 59 °F 53 °F (1997)
Degree Days  
Heating Degree Days 2    
Growing Degree Days 12 (Base 50)    
Moisture  
Dew Point 60 °F    
Average Humidity 97    
Maximum Humidity 100    
Minimum Humidity 88    
Precipitation  
Precipitation 0.28 in - - ()
Sea Level Pressure  
Sea Level Pressure 30.02 in    
Wind  
Wind Speed 6 mph (NNE)    
Max Wind Speed 13 mph    
Max Gust Speed 22 mph    
Visibility 9 miles    
Events Fog , Rain    
Averages and records for this station are not official NWS values.
T = Trace of Precipitation, MM = Missing Value Source: NWS Daily Summary

Daily Weather History Graph

Daily Weather History Graph

Search for Another Location

Airport or City:

Astronomy

Jun. 11, 2018 Rise Set
Actual Time 5:48 AM EDT 8:38 PM EDT
Civil Twilight 5:17 AM EDT 9:10 PM EDT
Nautical Twilight 4:37 AM EDT 9:50 PM EDT
Astronomical Twilight 3:51 AM EDT 10:36 PM EDT
Moon 4:18 AM EDT (6/11) 6:13 PM EDT (6/11)
Length of Visible Light 15h 53m
Length of Day
14h 49m
Waning Crescent, 7% of the Moon is Illuminated
Jun 11
Waning Crescent
Jun 13
New
Jun 20
First Quarter
Jun 28
Full
Jul 6
Last Quarter

Hourly Weather History & Observations

Time (EDT) Temp. Dew Point Humidity Pressure Visibility Wind Dir Wind Speed Gust Speed Precip Events Conditions
12:15 AM 66.2 °F 66.2 °F 100% 29.90 in 0.5 mi NNE 4.6 mph - N/A Fog Fog
12:35 AM 66.2 °F 66.2 °F 100% 29.91 in 0.2 mi NNE 4.6 mph - N/A Fog Fog
12:55 AM 64.4 °F 64.4 °F 100% 29.90 in 0.8 mi Calm Calm - N/A Rain Light Rain
1:15 AM 64.4 °F 64.4 °F 100% 29.90 in 2.0 mi NNE 6.9 mph - N/A Rain Light Rain
1:35 AM 64.4 °F 64.4 °F 100% 29.91 in 1.5 mi NNE 8.1 mph - N/A   Overcast
1:55 AM 64.4 °F 64.4 °F 100% 29.91 in 3.0 mi NE 3.5 mph - N/A   Light Drizzle
2:15 AM 64.4 °F 64.4 °F 100% 29.90 in 10.0 mi NNE 6.9 mph - N/A   Overcast
2:35 AM 62.6 °F 62.6 °F 100% 29.89 in 10.0 mi North 5.8 mph - N/A   Overcast
2:55 AM 62.6 °F 62.6 °F 100% 29.88 in 10.0 mi NNE 5.8 mph - N/A   Overcast
3:15 AM 62.6 °F 62.6 °F 100% 29.89 in 10.0 mi NNE 5.8 mph - N/A   Overcast
3:35 AM 62.6 °F 62.6 °F 100% 29.89 in 10.0 mi NNE 9.2 mph - N/A   Overcast
3:55 AM 62.6 °F 62.6 °F 100% 29.90 in 10.0 mi NNE 11.5 mph - N/A   Overcast
4:15 AM 62.6 °F 62.6 °F 100% 29.91 in 10.0 mi NNE 9.2 mph - N/A   Overcast
4:35 AM 60.8 °F 60.8 °F 100% 29.91 in 5.0 mi NNE 9.2 mph - N/A   Overcast
4:55 AM 59.0 °F 59.0 °F 100% 29.91 in 5.0 mi NNE 11.5 mph 19.6 mph N/A   Overcast
5:15 AM 59.0 °F 59.0 °F 100% 29.91 in 4.0 mi NNE 12.7 mph 21.9 mph N/A   Overcast
5:35 AM 59.0 °F 59.0 °F 100% 29.92 in 5.0 mi North 9.2 mph 17.3 mph N/A   Overcast
5:55 AM 59.0 °F 59.0 °F 100% 29.94 in 4.0 mi North 9.2 mph - N/A   Overcast
6:15 AM 59.0 °F 57.2 °F 94% 29.95 in 10.0 mi NNE 10.4 mph - N/A   Overcast
6:35 AM 59.0 °F 57.2 °F 94% 29.96 in 10.0 mi North 12.7 mph 16.1 mph N/A   Overcast
6:55 AM 59.0 °F 57.2 °F 94% 29.97 in 10.0 mi North 9.2 mph - N/A   Overcast
7:15 AM 59.0 °F 57.2 °F 94% 29.97 in 10.0 mi North 9.2 mph - N/A   Overcast
7:35 AM 59.0 °F 57.2 °F 94% 29.97 in 7.0 mi North 8.1 mph - N/A Rain Light Rain
7:55 AM 59.0 °F 59.0 °F 100% 29.98 in 10.0 mi NNE 8.1 mph - 0.01 in Rain Light Rain
8:15 AM 59.0 °F 59.0 °F 100% 29.99 in 10.0 mi NNE 10.4 mph - N/A Rain Light Rain
8:35 AM 59.0 °F 57.2 °F 94% 30.00 in 10.0 mi North 9.2 mph - N/A Rain Light Rain
8:55 AM 59.0 °F 57.2 °F 94% 30.01 in 7.0 mi North 9.2 mph 17.3 mph 0.05 in Rain Rain
9:15 AM 59.0 °F 57.2 °F 94% 30.01 in 10.0 mi NNE 9.2 mph - 0.05 in Rain Light Rain
9:35 AM 59.0 °F 57.2 °F 94% 30.02 in 7.0 mi North 8.1 mph - 0.09 in Rain Light Rain
9:55 AM 59.0 °F 59.0 °F 100% 30.02 in 10.0 mi North 5.8 mph - 0.09 in   Light Drizzle
10:15 AM 59.0 °F 59.0 °F 100% 30.01 in 10.0 mi Calm Calm - 0.01 in Rain Rain
10:35 AM 60.8 °F 59.0 °F 94% 30.01 in 10.0 mi NNE 5.8 mph - 0.03 in Rain Light Rain
10:55 AM 60.8 °F 60.8 °F 100% 30.03 in 10.0 mi NNE 6.9 mph - 0.03 in Rain Rain
11:15 AM 59.0 °F 59.0 °F 100% 30.03 in 10.0 mi NNE 11.5 mph 17.3 mph 0.01 in Rain Light Rain
11:35 AM 59.0 °F 59.0 °F 100% 30.04 in 5.0 mi NNE 9.2 mph - 0.05 in Rain Rain
11:55 AM 59.0 °F 59.0 °F 100% 30.04 in 10.0 mi North 10.4 mph 18.4 mph 0.06 in Rain Light Rain
12:15 PM 60.8 °F 59.0 °F 94% 30.04 in 10.0 mi North 9.2 mph - 0.01 in Rain Light Rain
12:35 PM 59.0 °F 59.0 °F 100% 30.04 in 10.0 mi North 6.9 mph - 0.01 in   Light Drizzle
12:55 PM 60.8 °F 59.0 °F 94% 30.04 in 10.0 mi NNE 6.9 mph - 0.01 in Rain Light Rain
1:15 PM 60.8 °F 59.0 °F 94% 30.05 in 10.0 mi NNE 9.2 mph - N/A Rain Light Rain
1:35 PM 60.8 °F 59.0 °F 94% 30.05 in 10.0 mi NNE 4.6 mph - 0.01 in Rain Rain
1:55 PM 60.8 °F 59.0 °F 94% 30.06 in 10.0 mi North 6.9 mph - 0.03 in Rain Light Rain
2:15 PM 60.8 °F 59.0 °F 94% 30.06 in 10.0 mi NNE 5.8 mph - N/A   Light Drizzle
2:35 PM 60.8 °F 59.0 °F 94% 30.06 in 10.0 mi NE 3.5 mph - N/A   Overcast
2:55 PM 60.8 °F 60.8 °F 100% 30.06 in 10.0 mi NNE 6.9 mph - N/A   Overcast
3:15 PM 62.6 °F 60.8 °F 94% 30.07 in 10.0 mi North 8.1 mph - N/A   Overcast
3:35 PM 62.6 °F 60.8 °F 94% 30.06 in 10.0 mi NNE 4.6 mph - N/A   Overcast
3:55 PM 62.6 °F 60.8 °F 94% 30.07 in 10.0 mi NNE 5.8 mph - N/A   Overcast
4:15 PM 62.6 °F 60.8 °F 94% 30.06 in 10.0 mi NNE 4.6 mph - N/A   Overcast
4:35 PM 62.6 °F 60.8 °F 94% 30.05 in 10.0 mi NNE 5.8 mph - N/A   Overcast
4:55 PM 62.6 °F 60.8 °F 94% 30.05 in 10.0 mi NNE 5.8 mph - N/A   Overcast
5:15 PM 62.6 °F 60.8 °F 94% 30.06 in 10.0 mi NNE 5.8 mph - N/A   Overcast
5:35 PM 62.6 °F 60.8 °F 94% 30.06 in 10.0 mi NNE 5.8 mph - N/A   Overcast
5:55 PM 62.6 °F 60.8 °F 94% 30.06 in 10.0 mi NE 3.5 mph - N/A   Overcast
6:35 PM 62.6 °F 60.8 °F 94% 30.06 in 10.0 mi NNE 8.1 mph - N/A   Overcast
6:55 PM 62.6 °F 59.0 °F 88% 30.08 in 10.0 mi East 5.8 mph - N/A   Overcast
7:15 PM 62.6 °F 60.8 °F 94% 30.09 in 10.0 mi Calm Calm - N/A   Overcast
7:35 PM 62.6 °F 60.8 °F 94% 30.10 in 5.0 mi NE 4.6 mph - N/A Rain Rain
7:55 PM 60.8 °F 60.8 °F 100% 30.11 in 10.0 mi North 3.5 mph - N/A   Overcast
8:15 PM 60.8 °F 60.8 °F 100% 30.12 in 10.0 mi North 3.5 mph - N/A   Overcast
8:35 PM 60.8 °F 60.8 °F 100% 30.12 in 10.0 mi North 4.6 mph - N/A   Overcast
8:55 PM 60.8 °F 60.8 °F 100% 30.13 in 10.0 mi Calm Calm - N/A   Overcast
9:15 PM 60.8 °F 60.8 °F 100% 30.13 in 10.0 mi Calm Calm - N/A   Overcast
9:35 PM 60.8 °F 60.8 °F 100% 30.13 in 10.0 mi Calm Calm - N/A   Overcast
9:55 PM 60.8 °F 60.8 °F 100% 30.14 in 10.0 mi Calm Calm - N/A   Overcast
10:15 PM 60.8 °F 60.8 °F 100% 30.15 in 10.0 mi Calm Calm - N/A   Overcast
10:35 PM 60.8 °F 60.8 °F 100% 30.16 in 10.0 mi Calm Calm - N/A   Overcast
10:55 PM 60.8 °F 60.8 °F 100% 30.16 in 10.0 mi North 3.5 mph - N/A   Overcast
11:15 PM 60.8 °F 60.8 °F 100% 30.17 in 10.0 mi Calm Calm - N/A   Overcast
11:35 PM 60.8 °F 60.8 °F 100% 30.17 in 10.0 mi Calm Calm - N/A   Overcast
11:55 PM 60.8 °F 60.8 °F 100% 30.17 in 10.0 mi NNE 3.5 mph - N/A   Overcast